Regional Weather Roundup
Issued by NWS

Home | Current Version | Previous Version | Graphics & Text | Print | Product List | Glossary On
Versions: 1 2 3 4 5 6 7 8 9 10 11 12 13 14 15 16 17 18 19 20 21 22 23 24 25 26 27 28 29 30 31 32 33 34 35 36 37 38 39 40 41 42 43 44 45 46 47 48 49 50
000
ASUS43 KLOT 251006
RWRIL

ILLINOIS REGIONAL WEATHER ROUNDUP
NATIONAL WEATHER SERVICE CHICAGO/ROMEOVILLE IL
500 AM CDT SAT OCT 25 2014

NOTE: "FAIR" INDICATES FEW OR NO CLOUDS BELOW 12,000 FEET WITH NO
SIGNIFICANT WEATHER AND/OR OBSTRUCTIONS TO VISIBILITY.

* THESE STATIONS ARE NOT UNDER NWS QUALITY CONTROL. THEY ALSO MAY NOT
  REPORT WEATHER SUCH AS PRECIPITATION OR FOG.

ILZ001-002-007-009-015-016-024-251100-
NORTHWEST ILLINOIS

CITY           SKY/WX    TMP DP  RH WIND       PRES   REMARKS
MOLINE         FOG       56  55  97 W7        29.94S VSB 1/4
STERLING*      CLOUDY    57  55  94 NW8       29.94S
SAVANNA*       CLOUDY    60  57  90 W3        29.93S FOG
$$

ILZ003-004-008-010-011-017-018-251100-
NORTH CENTRAL ILLINOIS

CITY           SKY/WX    TMP DP  RH WIND       PRES   REMARKS
ROCKFORD       MOCLDY    57  54  89 W8        29.94R FOG
FREEPORT*      PTCLDY    55  54  95 W3        29.94S FOG
ROCHELLE*      CLOUDY    56  55  95 W7        29.93S FOG
DE KALB*       CLOUDY    55  54  94 NW8       29.93R FOG
PERU*          FOG       56  55  95 NW9       29.94S VSB 1/2
$$

ILZ005-006-012>014-019>023-251100-
NORTHEAST ILLINOIS

CITY           SKY/WX    TMP DP  RH WIND       PRES   REMARKS
CHICAGO-OHARE  CLOUDY    57  54  89 W13       29.90S
CHICAGO-MIDWAY CLOUDY    58  54  86 W6        29.90F
AURORA         CLOUDY    57  55  93 W7        29.92S FOG
LANSING*       MOCLDY    52  51  94 W3        29.92S FOG
JOLIET*        MOCLDY    53  51  90 CALM      29.92S
WAUKEGAN       CLOUDY    57  54  89 VRB6      29.88R
DUPAGE AIRPORT CLOUDY    57  55  93 NW9       29.91R FOG
KANKAKEE*      PTCLDY    55  51  89 W6        29.93S
WHEELING       CLOUDY    59  55  87 W12G23    29.92R
MORRIS*        CLOUDY    56  56  99 W7        29.92S FOG
ROMEOVILLE*    CLOUDY    55  54  96 W7        29.92S FOG
NORTHERLY ISL    N/A     58  52  80 W8          N/A
$$

LMZ740>746-251100-
SOUTHERN LAKE MICHIGAN

STATION/POSITION SKY/WX   TEMP    WIND        PRES    VSBY  WAVE
                          AIR SEA DIR/SP/G                  HT/PER
                          (F)     (DEG/KT/KT) (MB)    (MI)  (FT/S)
SOUTHERN BUOY              56 54  250/ 14/ 16 1011.3S         1/ 3
WAUKEGAN HARBOR            58     290/ 10/ 15   N/A
HARRISON CRIB              59     260/ 13/ 17   N/A
BURNHAM HARBOR             58     270/  6/ 12   N/A
CALUMET HARBOR             57     240/  3/  6 1011.6R
MICHIGAN CITY              56     210/ 12/ 14   N/A
$$

ILZ025>027-034>036-040-047-049-050-058-095>099-251100-
WEST-CENTRAL ILLINOIS

CITY           SKY/WX    TMP DP  RH WIND       PRES   REMARKS
QUINCY         CLEAR     57  56  96 W5        29.98R FOG
GALESBURG*     FOG       50  50  99 CALM      29.95S VSB<1/4
MACOMB*        FOG       46  46 100 CALM      29.99R VSB 1/4
PITTSFIELD*    CLEAR     60  58  92 W5        30.00R FOG
$$

ILZ028>032-037-038-041>044-048-051>054-059>061-251100-
CENTRAL ILLINOIS

CITY           SKY/WX    TMP DP  RH WIND       PRES   REMARKS
PONTIAC        MOCLDY    55  52  90 W6        29.95S
BLOOMINGTON    CLEAR     55  52  90 W5        29.97R
DECATUR        PTCLDY    58  53  84 W8        29.96R
PEORIA         MOCLDY    53  49  86 CALM      29.96S
LACON*         MOCLDY    51  49  91 CALM      29.95R
LINCOLN*       CLEAR     55  51  87 CALM      29.96R
SPRINGFIELD    CLEAR     53  50  89 W5        29.97R FOG
TAYLORVILLE    CLEAR     57  54  88 W9        29.96S
$$

ILZ033-039-045-046-055>057-062-063-251100-
EAST-CENTRAL ILLINOIS

CITY           SKY/WX    TMP DP  RH WIND       PRES   REMARKS
CHAMPAIGN      PTCLDY    53  50  89 SW7       29.95R
DANVILLE*      MOCLDY    53  51  93 SW3       29.92R
RANTOUL*       PTCLDY    54  51  90 W6        29.95R
MATTOON        MOCLDY    58  53  84 SW7       29.95S
PARIS*         MOCLDY    56  53  89 SW6       29.95S
$$

ILZ079-100>102-251100-
SOUTHWEST ILLINOIS

CITY           SKY/WX    TMP DP  RH WIND       PRES   REMARKS
ALTON          MOCLDY    58  55  90 W3        29.99R
BELLEVILLE     CLEAR     54  54  99 SW2       29.98S
CAHOKIA*       FOG       55  54  96 CALM      29.99S VSB 1
SPARTA*        CLEAR     58  55  89 CALM      30.01R
$$

ILZ064>066-069>071-074>076-080>082-084>086-088>090-092>094-251100-
SOUTH-CENTRAL ILLINOIS

CITY           SKY/WX    TMP DP  RH WIND       PRES   REMARKS
CARBONDALE     CLEAR     57  54  89 S5        30.01R
CAIRO*         CLEAR     57  55  91 S5        30.03F
EFFINGHAM*     PTCLDY    57  51  80 SW3       29.97S
MARION         CLEAR     57  55  94 SW6       30.02R
MT. VERNON     CLEAR     54  50  87 SW3       30.00S
CENTRALIA*     PTCLDY    56  53  87 SW5       29.98S
SALEM*         CLEAR     57  55  93 SW6       29.98F
METROPOLIS*    PTCLDY    52  52 100 CALM      30.03S FOG
$$

ILZ067-068-072-073-078-083-087-091-251100-
SOUTHEAST ILLINOIS

CITY           SKY/WX    TMP DP  RH WIND       PRES   REMARKS
LAWRENCEVILLE  CLOUDY    56  54  93 S5        29.98F
FLORA*         PTCLDY    56  53  89 S3        29.99R
FAIRFIELD*     MOCLDY    57  54  89 S3        29.99R
HARRISBURG*    CLEAR     51  51 100 CALM      30.02S FOG
ROBINSON*      MOCLDY    57  54  89 S3        29.98S
CARMI*         CLOUDY    58  56  94 S5        30.00S
$$

ABBREVIATIONS USED IN REMARKS
   TC - TEMPERATURE IN CELSIUS
  WCI - WIND CHILL INDEX
   HX - HEAT INDEX
  VSB - VISIBILITY
$$




USA.gov is the U.S. government's official web portal to all federal, state and local government web resources and services.